Hourly Data Report for October 08, 2015

All times are specified in Local Standard Time (LST). Add 1 hour to adjust for Daylight Saving Time where and when it is observed.

PENTICTON A
BRITISH COLUMBIA

49°27'45.000" N
119°36'08.000" W
344.40 m
1126146
71889
YYF

Download Data

Hourly Data (October 2015)
Hourly Data Report for October 8, 2015
Temp Definition
°C
Dew Point Temp Definition
°C
Rel Hum Definition
%
Wind Dir Definition
10's deg

Wind Spd Definition
km/h
Visibility Definition
km
Stn Press Definition
kPa
Hmdx Definition


Wind Chill Definition


Weather Definition


TIME
00:00 Legend Double Dagger 13.6 11.8 89 13 8 24.1 98.19     LegendNANA
01:00 Legend Double Dagger 14.0 11.6 85 17 17 24.1 98.19     Cloudy
02:00 Legend Double Dagger 14.1 11.6 85 16 17 24.1 98.20     LegendNANA
03:00 Legend Double Dagger 14.2 11.7 85 17 18 24.1 98.18     LegendNANA
04:00 Legend Double Dagger 14.6 11.6 82 17 18 24.1 98.17     Cloudy
05:00 Legend Double Dagger 14.3 12.0 86 16 18 24.1 98.21     LegendNANA
06:00 Legend Double Dagger 14.4 11.9 85 16 13 24.1 98.25     LegendNANA
07:00 Legend Double Dagger 14.7 11.7 82 15 17 24.1 98.25     Mostly Cloudy
08:00 Legend Double Dagger 15.1 12.1 82 17 14 24.1 98.26     LegendNANA
09:00 Legend Double Dagger 15.4 12.2 81 16 14 24.1 98.32     Rain Showers
10:00 Legend Double Dagger 15.9 12.1 78 18 16 24.1 98.30     Cloudy
11:00 Legend Double Dagger 16.5 12.1 75 16 16 24.1 98.28     LegendNANA
12:00 Legend Double Dagger 17.2 12.0 71 17 18 24.1 98.26     LegendNANA
13:00 Legend Double Dagger 17.1 11.9 71 15 18 24.1 98.21     Cloudy
14:00 Legend Double Dagger 16.9 12.5 75 18 15 24.1 98.05     LegendNANA
15:00 Legend Double Dagger 17.0 12.2 73 18 18 24.1 98.11     LegendNANA
16:00 Legend Double Dagger 17.1 12.1 72 17 16 24.1 98.05     Cloudy
17:00 Legend Double Dagger 16.9 12.1 73 17 14 24.1 97.99     LegendNANA
18:00 Legend Double Dagger 16.5 12.3 76 18 14 24.1 97.96     LegendNANA
19:00 Legend Double Dagger 16.8 12.2 74 17 14 24.1 97.94     Cloudy
20:00 Legend Double Dagger 16.5 12.1 75 13 12 24.1 97.88     LegendNANA
21:00 Legend Double Dagger 16.4 12.2 76 15 8 24.1 97.89     LegendNANA
22:00 Legend Double Dagger 16.0 12.0 77 14 10 24.1 97.85     Cloudy
23:00 Legend Double Dagger 15.5 12.5 82 14 16 24.1 97.78     Rain Showers

Notes on Data Quality.

Legend

  • E = Estimated
  • M = Missing
  • NA = Not Available
  • ‡ = Partner data that is not subject to review by the National Climate Archives
Date modified: